Regional Weather Roundup
Issued by NWS

Home | Current Version | Previous Version | Text Only | Print | Product List | Glossary Off
Versions: 1 2 3 4 5 6 7 8 9 10 11 12 13 14 15 16 17 18 19 20 21 22 23 24 25 26 27 28 29 30 31 32 33 34 35 36 37 38 39 40 41 42 43 44 45 46 47 48 49 50

000
ASUS45 KTFX 222304
RWRMT
MONTANA HOURLY WEATHER ROUNDUP
NATIONAL WEATHER SERVICE GREAT FALLS MT
504 PM MDT TUE APR 22 2014

NOTE: "FAIR" INDICATES FEW OR NO CLOUDS BELOW 12000 FEET WITH NO
SIGNIFICANT WEATHER AND/OR OBSTRUCTIONS TO VISIBILITY.

* THESE STATIONS ARE NOT UNDER NWS QUALITY CONTROL. THEY DO NOT
   REPORT WEATHER SUCH AS PRECIPITATION OR FOG.

MTZ001>007-043-230000-
WEST OF THE DIVIDE
CITY           SKY/WX    TMP DP  RH WIND       PRES   REMARKS
KALISPELL      LGT RAIN  48  43  83 S6        29.63S
MISSOULA       CLOUDY    50  39  66 NW13      29.64F
BUTTE          RAIN      39  36  89 N12       29.60S VSB 3    WCI  32
MULLAN PASS    LGT SNOW  30  30 100 NW7       29.70R VSB 1/2  WCI  23
* ESSEX        N/A       44  40  86 S2         N/A
* LINCOLN      N/A       45  42  89 SW4        N/A
* LOOKOUT PASS N/A       36  35  96 NE6G13     N/A   WCI  31
* POLSON       N/A       49  38  66 S2         N/A
* SEELEY LAKE  N/A       44  42  93 SW4G11     N/A
* THOMP F APT  CLOUDY    52  34  50 S23G42     N/A
$$

MTZ008-052>055-230000-
SOUTHWEST MONTANA
CITY           SKY/WX    TMP DP  RH WIND       PRES   REMARKS
BOZEMAN        CLOUDY    61  39  44 S18       29.47F
DILLON         LGT RAIN  48  41  77 SW21G30   29.51R
W YELLOWSTONE  N/A       46  39  77 N3G11      N/A
* THREE FORKS  CLOUDY    66  43  43 SE14G26    N/A
* BOULDER HILL N/A       42  36  79 N7G13      N/A
* MONIDA PASS  N/A       48  34  59 S26G41     N/A
* RAYNOLDS PAS N/A       43  27  53 S17G24     N/A
* WHITEHALL    N/A       50  44  80 W14G31     N/A
* WISE RIVER   N/A       43  38  83 NW10       N/A
$$

MTZ009>010-012-014-046-048-049-054-230000-
EAST SLOPES AND CENTRAL MONTANA
CITY           SKY/WX    TMP DP  RH WIND       PRES   REMARKS
CUT BANK       CLOUDY    54  36  51 W24G33    29.50R
GREAT FALLS    CLOUDY    55  46  72 NW14      29.44F
HELENA         TSTM      46  41  83 W16G24    29.54S
MALMSTROM AFB  CLOUDY    59  45  60 SW13      29.42R
* CONRAD       CLOUDY    64  36  35 SW5        N/A
* DEARBORN     N/A       56  39  53 S14G20     N/A
* EAST GLACIER N/A       43  37  79 W14G19     N/A
* MONARCH      N/A       62  26  25 S11G19     N/A
* PENDROY      N/A       53  46  77 W9         N/A
* ROGERS PASS  N/A       40  36  86 SE15G25    N/A   WCI  32
* SAINT MARY   N/A       48  33  56 S8G23      N/A
* SWEET GRASS  N/A       65  31  28 W13G23     N/A
$$

MTZ011-013-016-021-035-040-045-047-050-051-230000-
NORTH CENTRAL MONTANA
CITY           SKY/WX    TMP DP  RH WIND       PRES   REMARKS
HAVRE          CLOUDY    77  28  16 SE20G28   29.37F
LEWISTOWN      CLOUDY    70  34  27 SE17G25   29.44F
* CHESTER      N/A       71  27  19 SE7        N/A
* DENTON       N/A       73  34  24 SE22G29    N/A
* GEYSER       N/A       68  32  26 SE20G27    N/A
* JUDITH GAP   N/A       66  36  33 SE23G32    N/A
* LOMA         N/A       75  30  19 E21G26     N/A
$$

MTZ017>020-022>027-061-062-230000-
NORTHEAST MONTANA
CITY           SKY/WX    TMP DP  RH WIND       PRES   REMARKS
GLASGOW        MOCLDY    75  34  22 SE26G37   29.51F
GLENDIVE       PTCLDY    73  36  26 SE28      29.61F
JORDAN         PTCLDY    79  34  20 SE20      29.48F
SIDNEY         MOCLDY    72  34  25 N/A       29.64F
WOLF POINT     PTCLDY    77  32  19 SE20G30   29.56F
* BEAVER HILL  N/A       71  33  25 E33G40     N/A
* CIRCLE       N/A       76  40  27 SE19       N/A
* LINDSAY DVD  N/A       72  34  25 E21G32     N/A
* NAVAJO       N/A       67  28  23 SE23G32    N/A
* SACO         N/A       74  33  22 E27G32     N/A
$$

MTZ028>042-056>058-230000-
SOUTHCENTRAL AND SOUTHEAST MONTANA
CITY           SKY/WX    TMP DP  RH WIND       PRES   REMARKS
BAKER          MOCLDY    66  34  31 SE29G37   29.64F
BILLINGS       CLOUDY    72  34  25 SE17G24   29.48F
LIVINGSTON     CLOUDY    59  45  60 SW16      29.48F
MILES CITY     PTCLDY    75  36  24 SE21      29.52F
* LAUREL APT   CLOUDY    72  37  28 SE13G18    N/A
* ROUNDUP APT  PTCLDY    75  36  24 SE16G23    N/A
* HYSHAM       N/A       73  35  25 SE11       N/A
* LAME DEER    N/A       70  29  22 SE14G21    N/A
* REED POINT   N/A       73  40  30 E14G27     N/A
* ROSCOE HILL  N/A       65  27  24 E26G32     N/A
$$

REGIONAL REPORTS...DAKOTAS
CITY           SKY/WX    TMP DP  RH WIND       PRES   REMARKS
WILLISTON      CLOUDY    72  30  21 SE22G35   29.69F
DICKINSON      PTCLDY    70  30  23 SE24G37   29.70F
CROSBY         CLEAR     66  30  26 SE28G36   29.75F
TIOGA          CLEAR     66  28  24 SE26G33   29.78F
WATFORD CITY   CLEAR     68  30  24 SE22G32   29.68F
BISMARCK       PTCLDY    68  30  24 SE24G31   29.82F
GRAND FORKS    PTCLDY    63  30  29 SE9       29.99F
FARGO          PTCLDY    63  32  31 SE12      29.99F
BUFFALO SD     MOCLDY    70  36  29 E23G35    29.58F
RAPID CITY     CLOUDY    73  45  37 S20       29.61F
$$

REGIONAL REPORTS...WYOMING/IDAHO/WASHINGTON
CITY           SKY/WX    TMP DP  RH WIND       PRES   REMARKS
GILLETTE       CLOUDY    72  39  30 S13       29.59F
SHERIDAN       MOCLDY    72  36  27 SE8       29.53F
CODY           MOCLDY    66  36  33 S20G28    29.53F
YELLOWSTONE LA CLOUDY    48  30  50 CALM      29.65F
SALMON         CLOUDY    46  37  71 NE9       29.63R
MULLAN PASS    LGT SNOW  30  30 100 NW7       29.70S VSB 1/2  WCI  23
SPOKANE        MOCLDY    52  34  50 SW22      29.72R

$$




USA.gov is the U.S. government's official web portal to all federal, state and local government web resources and services.